Location: Mount Kobau Star Party
(49.1167°N, 119.7333°W)
Time: 12:35:31
(UTC-07:00)

ARIANE 6 FM1 Upper Stage - Pass Details

Date: 20 April 2026
Orbit: 526 x 601 km, 62.0° (Epoch: 18 May)

Event Time Altitude Azimuth Distance (km) Brightness Sun altitude
Rises 22:32:50 0° 313° (NW) 2,687 7.6 -21.2°
Reaches altitude 10° 22:35:51 10° 337° (NNW) 1,784 6.3 -21.5°
Maximum altitude 22:38:15 15° 14° (NNE) 1,475 5.2 -21.7°
Drops below altitude 10° 22:40:38 10° 51° (NE) 1,773 5.2 -21.9°
Enters shadow 22:41:16 - 58° (ENE) 1,932 5.4 -22.0°
